SL-8 DEB *

Satellite information

Favourite Embed

Satellite Type and Status

DEBRISIN ORBIT

Key statistics

Satellite SL-8 DEB * at a glance.

Uptime

15743

Days in orbit

Revolutions

≈ 14.6

Per day

Orbit

LEO

Low Earth Orbit

Inclination

74.0

Latest

Satellite identification and parameters

Extended collection of information and parameters for SL-8 DEB *.

Object identification

Identified? True

Debris? True

Object name: SL-8 DEB *

International designator: 1982-051G

Object number (NORAD): 19102

Object ID (CCSDS): 19102

Country: COMMONWEALTH OF INDEPENDENT STATES (CIS)

Current information (Y/N): Y

RCS size: SMALL

Orbital parameters

Period: 98.412 minutes

Inclination: 74.0447 deg

SMA: 7060.887 km

Apoapsis: 689.83 km

Periapsis: 675.674 km

RAAN: 303.5233 deg

Eccentricy: 0.0010024

Argument of periapsis: 333.7991 deg

Mean anomaly: 183.6561 deg

Mean motion: 14.63234245 rev/day

Mean motion (dot): 0.00001532 rev/day2

B* drag term: 0.00030294 1/REarth

Two-line elements (TLE)

Creation date: July 8, 2025, 2:27 a.m.

Reference frame: TEME

Reference center: EARTH

Epoch: July 7, 2025, 6:28 p.m. UTC

TLE line 0: 0 SL-8 DEB *

TLE line 1: 1 19102U 82051G 25188.76984101 .00001532 00000-0 30294-3 0 9991

TLE line 2: 2 19102 74.0447 303.5233 0010024 333.7991 183.6561 14.63234245964803

Live tracking on map

Real-time ground track for satellite SL-8 DEB *.

In-orbit conjunctions

A list of the most updated potential collisions computed for object SL-8 DEB *.

Target Orbit TCA Probability of collision Miss distance Type
FENGYUN 1C DEB SSO 2024-11-09 10:45:16 0.0001790132 537.0 (m) DEBRIS
SAC C SSO 2024-06-24 05:51:16 0.0005813492 164.0 (m) PAYLOAD

Associated space launch

Military communications satellite

SL-8 DEB * was lifted into orbit during the mission ‘Kosmos-3M | Strela-2M 28’, on board a Kosmos-3M space rocket.

The launch took place on June 1, 1982, 4:37 a.m. from 132/1 (132L).

For more information about the launch, click the button.

Launch to space Kosmos-3M | Strela-2M 28
Kosmos-3M | Strela-2M 28

Agency: N/A

Status: Launch Successful

Launch date: June 1, 1982, 4:37 a.m. UTC

Rocket: Kosmos-3M

Launch pad: 132/1 (132L)

Location: Plesetsk Cosmodrome, Russian Federation

...

Latest news about this satellite

There are no fresh news available about this satellite. Check back as we update our databases every day.


Newsletter sign-up

Weekly statistics, charts and insights to help you stay on top of the space industry.